Location: Unspecified
(0.0000°N, 0.0000°E)
Time: 23:02:07
(UTC+00:00)

X-37B - Visible Passes

Search period start: 15 January 2021 00:00
Search period end: 25 January 2021 00:00
Orbit: 389 x 390 km, 44.9° (Epoch: 18 May)

Date Brightness Start Highest point End Pass type
(mag) Time Alt. Az. Time Alt. Az. Time Alt. Az.
15 Jan ? 04:56:52 53° WNW 04:57:28 75° SW 05:00:35 10° SE visible
16 Jan ? 04:00:26 12° ESE 04:00:26 12° ESE 04:00:43 10° ESE visible
17 Jan ? 04:36:10 18° S 04:36:10 18° S 04:37:21 10° S visible
